Temp
20 21 22 23 24 24 24 24 24 25 23 22 23 23 23 24 23 23 22 21 20 19 19 19 20 18 18 17 17 16 16 16 16 16 16 17 17 18 18 18 18 18 17
20 21 21 22 23 24 24 24 24 23 22 22 23 23 23 23 23 22 22 22 21 19 20 18 20 17 17 17 17 16 16 16 16 16 15 14 16 18 18 17 18 18 18
16 17 19 21 22 23 24 25 25 24 22 21 20 20 19 19 21 22 22 21 19 18 20 18 20 20 18 17 15 16 16 16 16 15 15 15 15 16 15 16 17 17 17
15 16 17 19 20 21 22 23 24 24 22 21 20 21 22 21 23 21 20 18 17 17 18 19 19 19 18 18 15 15 16 15 15 15 15 16 16 15 15 16 15 15 15
14 14 14 14 16 19 20 20 22 22 21 20 20 20 20 21 18 18 17 17 16 17 17 18 18 18 17 18 15 15 16 16 15 15 15 15 15 14 14 13 14 15 15
13 13 14 15 16 17 18 19 20 21 21 21 20 19 19 19 17 16 16 16 17 16 16 17 18 17 15 15 15 15 15 15 15 15 15 14 13 14 13 13 13 12 14
11 12 12 12 14 15 16 17 18 19 21 20 19 18 18 17 16 16 17 17 16 15 15 15 15 15 17 15 15 16 15 15 15 14 13 13 13 13 12 12 12 11 12
10 11 11 11 11 13 14 15 16 16 18 19 16 16 16 16 15 15 15 15 15 15 14 17 16 15 15 15 16 15 14 14 14 13 12 12 11 11 11 11 11 10 10
10 10 11 12 12 10 12 13 13 14 15 15 15 15 15 15 15 15 15 15 14 13 15 8 14 14 15 14 15 15 14 14 13 13 12 12 12 11 10 10 9 8 8
10 9 10 12 12 12 11 12 13 13 14 15 15 15 15 15 15 14 14 13 12 13 15 12 11 13 14 15 14 13 14 13 13 12 11 11 10 10 10 10 9 7 7
9 9 9 11 11 12 11 11 13 13 13 13 15 15 15 14 13 12 12 11 11 13 13 13 13 14 14 14 13 13 12 12 11 10 9 9 9 9 9 9 8 7 6
9 9 8 9 11 11 10 10 11 12 12 12 12 13 12 12 13 11 10 10 11 12 12 12 13 13 12 11 11 11 10 10 9 8 7 7 7 7 7 7 7 6 6
8 8 9 8 8 10 9 9 10 11 12 10 12 12 11 11 11 11 9 9 10 11 12 12 12 11 11 10 9 8 8 7 6 6 5 5 6 6 6 6 6 5 5
7 7 7 7 8 8 7 8 9 10 10 10 10 11 12 10 11 9 8 9 9 9 9 9 9 9 8 8 7 6 5 4 4 3 3 3 5 5 5 4 4 4 3
6 6 6 6 6 6 6 7 8 8 8 9 9 10 10 9 8 8 7 6 6 7 8 6 5 6 6 6 5 5 4 2 2 2 2 2 2 3 2 2 1 1 1
6 5 5 5 5 5 5 6 7 8 7 7 7 5 5 5 3 4 4 4 5 5 5 4 4 4 5 4 5 3 2 2 2 1 1 1 1 1 0 0 0 -2 -3
5 5 4 4 3 5 6 6 7 7 6 6 6 5 3 3 1 1 1 1 2 4 3 3 2 1 1 1 1 3 1 1 0 0 0 -0 -1 -1 -1 -1 -1 -1 -3
5 4 4 4 3 4 5 5 5 5 5 5 4 3 3 0 1 1 2 -0 -1 -1 -1 -0 -1 -1 -0 1 1 -0 -0 0 -1 -2 -3 -3 -3 -5 -5 -5 -5 -5 -5
5 4 4 4 2 3 4 3 3 3 2 2 1 0 -0 -0 -0 0 -1 -2 -1 -1 -0 -2 -2 -1 -1 -3 -4 -3 -2 -2 -3 -3 -4 -5 -5 -6 -6 -7 -7 -6 -6
5 4 4 4 2 2 3 3 2 1 0 -0 -1 -1 -1 -2 -1 -2 -3 -2 -2 -2 -1 -2 -3 -4 -4 -5 -4 -4 -5 -4 -4 -4 -5 -5 -6 -6 -6 -7 -8 -7 -7
5 4 3 3 1 1 1 2 2 1 -1 -2 -2 -2 -2 -2 -3 -4 -5 -4 -4 -3 -3 -3 -4 -5 -5 -6 -6 -6 -6 -7 -7 -7 -6 -6 -7 -7 -7 -7 -8 -8 -8
4 3 3 1 1 1 1 1 0 -1 -2 -2 -2 -2 -3 -3 -4 -4 -5 -4 -4 -3 -4 -5 -5 -6 -6 -6 -6 -7 -7 -7 -8 -8 -8 -8 -8 -8 -8 -8 -8 -8 -8
3 3 1 -0 -0 -1 -1 -1 -2 -2 -2 -2 -3 -3 -3 -4 -5 -5 -5 -5 -5 -5 -6 -6 -6 -7 -8 -8 -7 -8 -8 -8 -8 -9 -9 -9 -9 -9 -9 -9 -9 -9 -9
2 1 -1 -1 -1 -2 -2 -2 -3 -3 -3 -4 -5 -5 -6 -5 -6 -5 -6 -5 -6 -6 -7 -8 -8 -9 -10 -10 -10 -9 -9 -9 -9 -9 -9 -9 -10 -10 -10 -10 -9 -9 -10
1 -1 -2 -2 -3 -3 -3 -4 -4 -4 -4 -5 -6 -6 -6 -6 -6 -6 -7 -6 -7 -8 -9 -9 -9 -10 -11 -11 -11 -10 -10 -10 -10 -9 -9 -9 -10 -10 -10 -10 -10 -12 -12
-1 -2 -3 -4 -4 -4 -4 -5 -5 -4 -4 -5 -6 -6 -6 -7 -7 -8 -7 -8 -9 -9 -9 -10 -10 -10 -10 -9 -9 -9 -10 -10 -9 -10 -10 -11 -11 -13 -14 -14 -11 -11 -11
Height
1475 1473 1470 1469 1467 1466 1464 1460 1459 1457 1459 1460 1460 1462 1463 1466 1467 1469 1471 1475 1479 1486 1492 1496 1499 1502 1504 1506 1507 1508 1507 1506 1506 1507 1504 1502 1502 1500 1499 1500 1499 1498 1497
1471 1467 1466 1465 1463 1459 1457 1455 1450 1446 1444 1446 1448 1452 1454 1455 1457 1459 1460 1464 1470 1479 1483 1489 1492 1494 1497 1499 1500 1501 1499 1499 1500 1501 1498 1494 1495 1493 1492 1493 1493 1492 1491
1474 1467 1462 1459 1457 1453 1450 1446 1443 1438 1434 1433 1438 1442 1445 1447 1447 1447 1448 1451 1457 1469 1474 1480 1484 1485 1488 1491 1492 1491 1490 1491 1493 1495 1494 1492 1490 1487 1486 1485 1486 1485 1484
1473 1468 1461 1454 1450 1447 1443 1439 1434 1430 1428 1427 1429 1429 1431 1434 1435 1437 1439 1441 1445 1458 1466 1470 1472 1475 1478 1480 1481 1483 1484 1484 1486 1487 1485 1486 1488 1486 1480 1479 1478 1477 1476
1476 1469 1463 1455 1448 1442 1437 1433 1427 1423 1422 1420 1420 1420 1423 1425 1431 1432 1433 1437 1441 1447 1454 1458 1462 1464 1468 1470 1474 1475 1477 1477 1479 1479 1479 1480 1480 1480 1479 1475 1472 1471 1469
1475 1467 1461 1452 1444 1438 1432 1426 1422 1417 1415 1414 1414 1415 1417 1421 1424 1427 1430 1434 1436 1437 1442 1449 1453 1456 1460 1463 1464 1466 1468 1471 1472 1473 1473 1474 1474 1473 1472 1470 1467 1465 1463
1476 1469 1463 1454 1446 1437 1430 1424 1418 1414 1411 1409 1411 1414 1417 1419 1424 1427 1427 1429 1429 1429 1434 1438 1444 1448 1452 1453 1455 1460 1464 1465 1466 1467 1467 1467 1466 1467 1466 1465 1461 1460 1457
1476 1472 1466 1457 1448 1439 1431 1426 1418 1414 1410 1407 1410 1413 1415 1418 1421 1424 1424 1424 1423 1427 1434 1432 1436 1443 1445 1448 1450 1453 1457 1458 1461 1462 1460 1458 1459 1460 1460 1458 1456 1452 1451
1478 1472 1464 1458 1450 1442 1436 1427 1421 1416 1411 1409 1407 1410 1412 1414 1415 1416 1417 1417 1422 1426 1432 1431 1419 1438 1440 1449 1444 1445 1450 1453 1455 1455 1455 1454 1454 1454 1454 1453 1451 1449 1445
1477 1473 1467 1460 1452 1445 1437 1429 1424 1419 1416 1412 1411 1409 1410 1411 1412 1413 1415 1419 1422 1427 1427 1429 1440 1445 1439 1438 1445 1445 1445 1448 1450 1452 1453 1452 1451 1450 1449 1448 1446 1444 1442
1480 1475 1467 1462 1455 1448 1440 1433 1428 1423 1420 1416 1415 1412 1413 1415 1416 1417 1417 1421 1422 1423 1426 1435 1446 1444 1435 1438 1446 1443 1441 1445 1447 1449 1451 1450 1447 1446 1444 1443 1442 1438 1436
1481 1475 1469 1462 1455 1448 1441 1437 1432 1426 1422 1420 1418 1412 1421 1419 1418 1422 1424 1422 1428 1423 1430 1435 1439 1437 1437 1441 1444 1439 1441 1443 1444 1447 1449 1448 1444 1442 1441 1439 1439 1435 1431
1477 1473 1467 1460 1453 1446 1442 1438 1434 1432 1428 1423 1420 1417 1424 1421 1420 1421 1429 1425 1426 1434 1433 1436 1439 1441 1441 1442 1439 1439 1439 1441 1441 1445 1447 1444 1440 1440 1437 1437 1435 1433 1429
1477 1471 1464 1459 1453 1446 1442 1438 1436 1433 1430 1426 1420 1421 1419 1425 1418 1425 1428 1427 1432 1435 1433 1434 1438 1436 1437 1437 1438 1439 1437 1440 1442 1446 1442 1440 1436 1436 1434 1433 1433 1428 1428
1477 1471 1465 1457 1449 1443 1439 1435 1434 1433 1430 1427 1424 1420 1419 1420 1424 1424 1430 1429 1432 1431 1427 1434 1437 1433 1435 1437 1437 1437 1438 1441 1443 1443 1439 1435 1433 1430 1431 1428 1427 1424 1423
1474 1469 1463 1456 1447 1440 1434 1431 1430 1427 1425 1424 1423 1422 1421 1418 1425 1426 1430 1433 1431 1435 1431 1436 1436 1436 1435 1438 1436 1436 1438 1440 1440 1439 1434 1433 1429 1427 1428 1425 1423 1420 1418
1472 1467 1461 1454 1446 1438 1431 1428 1428 1426 1424 1424 1422 1423 1424 1421 1427 1429 1430 1433 1435 1431 1435 1436 1437 1438 1434 1437 1435 1433 1439 1436 1437 1435 1431 1430 1426 1424 1422 1421 1418 1415 1413
1469 1464 1459 1452 1446 1439 1433 1429 1427 1426 1425 1423 1423 1423 1424 1430 1430 1432 1432 1434 1436 1436 1436 1435 1437 1436 1435 1434 1432 1435 1435 1435 1433 1432 1430 1426 1423 1421 1419 1415 1413 1409 1407
1466 1462 1457 1452 1445 1441 1436 1432 1430 1429 1427 1426 1428 1428 1430 1433 1433 1435 1438 1440 1438 1437 1434 1440 1439 1435 1433 1434 1434 1434 1431 1432 1431 1429 1426 1424 1421 1418 1414 1410 1407 1404 1401
1463 1459 1454 1450 1444 1441 1437 1433 1431 1432 1431 1432 1432 1431 1434 1433 1438 1439 1439 1442 1442 1442 1439 1439 1437 1436 1435 1436 1434 1432 1430 1429 1426 1425 1421 1418 1417 1414 1411 1407 1403 1399 1395
1458 1456 1452 1447 1444 1441 1437 1435 1432 1432 1435 1435 1436 1437 1438 1441 1443 1443 1445 1447 1447 1443 1439 1438 1439 1440 1439 1435 1433 1432 1430 1427 1425 1422 1418 1415 1412 1408 1405 1401 1398 1393 1387
1454 1452 1448 1444 1442 1440 1438 1436 1433 1434 1436 1437 1439 1440 1440 1442 1444 1448 1448 1448 1449 1443 1440 1443 1442 1441 1440 1436 1432 1431 1430 1427 1423 1420 1417 1413 1408 1404 1398 1394 1390 1384 1380
1451 1448 1445 1443 1441 1440 1439 1437 1437 1438 1438 1438 1439 1441 1444 1446 1450 1450 1450 1449 1448 1446 1444 1442 1439 1441 1438 1435 1433 1430 1429 1426 1422 1419 1415 1408 1403 1398 1392 1389 1385 1379 1374
1448 1445 1443 1441 1441 1441 1441 1440 1441 1442 1442 1442 1443 1445 1448 1450 1451 1449 1450 1446 1445 1449 1446 1444 1442 1441 1438 1435 1432 1429 1426 1423 1419 1414 1409 1404 1398 1394 1389 1384 1380 1375 1369
1445 1444 1443 1441 1442 1443 1443 1446 1447 1447 1446 1446 1448 1449 1449 1450 1450 1450 1450 1449 1451 1451 1447 1445 1443 1441 1439 1436 1435 1431 1426 1422 1417 1412 1407 1401 1395 1390 1385 1379 1374 1372 1365
1443 1443 1444 1442 1444 1446 1447 1450 1451 1451 1449 1450 1451 1451 1451 1454 1456 1456 1452 1454 1453 1452 1450 1448 1447 1446 1443 1441 1437 1433 1428 1423 1416 1411 1404 1399 1393 1388 1382 1376 1372 1366 1362
Wind_Speed
26 26 23 18 19 20 23 26 28 33 46 53 55 55 55 53 53 53 52 50 46 41 39 36 30 37 35 33 30 26 24 23 20 24 24 22 22 23 20 19 23 28 28
29 28 24 22 20 22 22 26 31 34 40 48 52 58 57 58 56 57 56 53 48 36 35 31 28 30 32 33 32 28 25 23 21 23 22 19 23 23 20 24 25 26 29
27 31 33 30 25 24 28 30 32 27 35 40 46 49 52 52 53 57 58 57 53 40 35 28 30 31 31 32 39 27 25 21 22 20 17 9 10 22 17 22 29 27 28
30 32 36 36 32 29 30 34 33 25 25 33 42 47 48 53 54 51 51 48 44 38 37 32 30 34 28 38 30 23 19 19 19 21 19 18 20 23 26 24 28 29 30
30 33 34 36 32 30 30 32 32 28 21 32 38 44 45 47 45 43 40 36 30 28 41 43 34 35 31 23 22 22 18 18 19 17 18 19 20 20 23 25 34 35 34
32 35 40 41 35 29 30 31 32 28 25 22 34 40 41 41 41 38 34 26 22 26 38 41 37 25 21 22 19 15 13 14 16 16 16 17 16 20 25 25 28 26 34
33 35 38 44 45 39 34 32 27 25 23 17 20 30 34 33 32 29 27 23 24 29 36 32 34 29 23 17 14 13 14 15 15 16 16 16 19 19 21 24 26 25 27
34 35 36 40 45 41 36 32 27 19 13 9 10 16 20 21 20 21 23 23 27 28 25 25 22 20 18 12 11 13 13 14 16 17 18 18 19 20 23 23 23 27 20
32 37 42 47 48 39 36 29 21 16 10 4 5 8 11 14 19 23 28 26 25 22 14 13 22 15 12 11 8 7 7 9 11 13 13 14 16 17 18 19 18 16 14
33 36 43 48 46 41 33 23 16 10 4 6 4 9 12 15 19 18 19 21 21 10 14 12 4 7 7 4 2 3 6 9 11 12 13 13 12 12 13 15 15 15 16
29 32 38 45 46 43 28 22 10 5 3 3 3 3 6 8 14 17 17 17 12 11 14 16 7 2 2 1 4 4 5 6 7 9 9 9 8 9 11 12 13 14 14
28 33 34 40 43 42 29 22 8 1 11 14 13 15 13 14 11 11 15 18 15 17 14 11 5 2 3 2 1 2 2 3 4 6 6 7 7 8 9 11 12 13 12
27 30 37 39 37 41 26 23 4 2 4 13 11 11 11 13 14 13 10 13 13 12 12 8 5 4 4 3 4 5 4 4 5 4 5 7 8 9 10 11 12 14 14
25 31 36 38 39 35 25 21 17 8 5 7 0 4 7 6 9 11 11 11 11 11 12 10 7 7 7 7 6 7 8 7 7 6 7 9 11 13 14 15 16 16 18
24 29 31 39 37 35 28 22 22 14 12 12 12 10 9 13 13 14 12 14 12 11 10 9 9 10 8 8 9 8 8 6 6 9 10 11 13 14 15 16 17 18 19
25 27 31 34 39 39 30 21 22 20 19 15 14 17 18 19 17 15 11 8 7 9 11 11 12 12 10 8 6 7 7 9 10 12 12 12 13 14 16 16 16 16 18
23 25 30 33 35 40 27 17 22 18 13 11 11 10 11 16 15 13 12 10 9 8 9 10 10 12 13 10 9 10 9 10 12 14 15 16 16 15 17 19 19 18 16
22 24 27 36 32 34 25 14 16 14 15 16 14 15 15 13 14 13 12 13 13 14 14 14 14 14 15 13 12 10 11 12 13 14 17 18 20 19 22 22 22 20 20
24 24 28 33 28 28 18 6 9 14 15 16 15 15 14 13 13 14 12 12 10 12 14 13 13 14 16 18 18 17 17 17 17 17 18 19 20 21 25 24 23 24 23
24 25 29 32 26 24 18 10 9 11 14 15 17 16 16 15 15 14 15 13 12 12 12 12 15 16 16 18 20 21 21 22 22 22 22 21 22 23 23 25 24 27 26
25 26 28 28 22 21 15 11 11 13 15 17 17 17 17 14 14 14 12 11 11 13 15 16 17 17 18 19 20 21 22 24 25 25 26 26 27 27 26 24 24 25 29
23 24 25 23 19 15 11 9 13 16 17 16 16 15 15 15 13 11 14 15 13 15 18 17 19 21 21 22 23 24 24 25 25 25 26 27 27 27 27 27 27 28 29
19 21 20 18 12 6 8 14 19 17 16 17 18 17 15 13 14 16 17 17 18 20 22 23 25 24 25 26 27 26 26 26 26 26 27 28 28 26 26 24 24 25 23
17 15 17 10 4 9 16 18 18 17 17 20 19 17 17 19 19 20 20 23 24 23 23 24 24 23 24 26 28 29 29 30 30 31 31 31 29 26 26 26 25 25 24
13 11 8 7 13 17 18 16 16 14 18 18 18 21 21 20 21 23 23 23 23 22 23 24 23 23 24 26 26 28 30 30 29 30 29 29 28 28 27 28 27 25 25
9 5 11 19 21 20 19 15 13 11 14 19 21 22 21 20 20 20 22 21 21 21 22 23 23 22 22 23 24 25 26 27 29 30 31 31 30 27 27 27 29 27 27
Wind_Direction
337 342 343 332 320 308 307 298 291 284 264 251 246 246 247 249 249 250 249 249 248 249 249 251 270 261 260 260 257 256 257 264 270 278 285 287 290 284 277 287 284 288 293
351 352 348 345 341 328 320 304 294 292 273 257 251 249 249 249 251 251 253 251 247 244 242 244 253 271 266 261 257 252 255 261 266 268 282 295 300 294 297 295 290 292 294
351 351 351 348 342 338 332 317 300 287 275 261 256 252 249 250 251 252 254 254 247 231 234 223 222 254 260 259 257 248 246 256 266 271 265 272 281 306 299 292 295 295 293
353 351 353 347 342 338 336 332 311 286 276 264 252 251 252 250 253 253 253 252 252 234 219 208 221 240 234 246 251 253 255 261 266 270 274 275 278 285 300 290 296 298 297
3 359 353 350 350 347 340 342 327 291 278 258 255 254 251 254 251 254 255 255 261 241 215 217 235 233 234 237 236 245 246 252 255 261 269 273 275 276 277 279 289 295 296
359 2 2 2 355 350 344 343 342 312 291 268 254 252 254 252 247 248 256 257 253 230 213 215 224 219 218 225 229 239 244 248 255 255 254 256 268 278 279 280 278 283 292
3 360 359 359 358 352 349 343 338 322 302 294 260 253 255 254 255 255 257 255 235 221 215 209 201 201 208 218 212 231 239 249 249 254 255 258 265 264 275 274 286 289 289
5 2 358 358 356 356 352 343 341 330 307 290 261 251 252 253 251 244 234 224 213 206 196 206 195 188 183 193 218 237 252 260 263 261 263 265 265 270 274 279 284 288 287
358 359 359 3 357 355 350 344 344 340 328 280 205 220 230 229 226 219 222 212 177 159 167 144 147 160 171 196 216 229 248 274 282 287 288 285 281 274 273 274 278 288 297
354 350 357 359 0 352 349 345 352 352 348 315 218 195 196 200 206 192 180 156 132 143 194 296 77 143 145 137 236 257 290 292 296 296 290 281 278 281 283 287 286 277 276
346 344 347 352 356 356 347 338 352 9 50 107 139 143 169 167 155 144 132 134 136 151 158 188 217 192 82 359 297 309 317 304 302 295 292 296 304 305 306 304 295 291 290
342 341 341 347 352 355 346 331 331 155 136 129 128 105 124 133 142 124 113 113 113 124 127 140 150 108 71 63 3 21 4 323 321 324 325 328 343 340 334 328 320 315 313
338 342 344 346 345 350 347 331 305 12 355 114 109 111 124 115 109 115 117 106 107 118 126 119 102 82 81 67 52 48 47 34 27 358 347 350 351 341 340 330 323 321 320
337 339 342 342 343 346 338 327 290 253 220 231 113 119 121 142 143 132 134 131 135 115 97 89 79 70 54 49 55 55 49 36 16 347 344 339 337 331 326 322 318 317 316
339 338 339 340 339 339 337 311 284 230 198 214 220 214 187 151 138 147 142 127 123 105 88 81 74 71 70 62 43 33 25 5 336 321 328 328 325 324 317 315 315 315 313
337 337 338 340 340 338 329 291 274 245 231 202 172 157 160 151 143 131 131 124 96 82 72 68 58 54 46 38 21 13 360 339 330 327 334 332 330 326 317 311 306 307 311
331 335 337 340 340 343 334 287 265 238 212 190 168 157 146 144 148 137 126 104 96 78 71 70 68 60 59 49 34 6 351 349 343 340 340 334 334 328 317 316 312 308 302
328 333 338 341 343 343 338 293 250 217 187 174 165 153 150 143 136 124 111 100 90 86 81 65 57 47 37 21 17 6 354 346 344 346 342 338 335 333 329 322 316 313 307
326 328 339 341 340 335 319 260 200 179 169 154 147 141 134 129 113 101 89 87 91 79 67 58 48 30 23 15 10 2 354 348 344 341 337 334 329 322 324 318 316 311 306
324 328 337 338 338 338 312 259 181 163 140 131 127 126 118 109 99 91 89 85 68 64 58 49 36 28 22 11 4 0 355 350 348 343 337 334 328 317 315 315 315 308 306
320 327 333 335 336 330 301 253 200 157 131 124 115 104 98 91 85 90 84 79 74 65 54 41 38 30 26 23 18 13 5 359 353 349 343 339 333 328 323 313 304 297 297
317 325 331 337 331 320 275 215 162 140 132 119 116 114 103 92 84 90 83 79 67 62 57 52 44 34 27 23 19 14 7 1 356 350 344 339 336 332 329 325 315 305 294
313 322 333 333 307 277 217 165 136 138 134 127 113 98 89 98 95 84 79 72 62 56 53 45 40 30 23 19 16 13 7 2 357 350 345 341 337 334 335 333 330 326 318
314 320 334 308 234 165 152 140 136 131 123 111 104 106 103 92 87 81 71 62 56 47 45 42 37 29 23 18 12 8 5 1 357 352 350 345 342 341 339 339 340 337 331
315 330 322 186 151 146 134 127 125 122 110 107 107 98 92 84 76 70 64 57 54 46 43 39 33 28 23 17 11 7 4 1 357 353 352 350 347 343 341 340 341 335 336
326 311 172 151 142 135 122 119 112 103 114 105 99 93 89 85 79 72 66 61 56 48 43 37 33 28 23 15 11 8 6 4 1 3 1 358 353 347 343 340 338 340 339